| time (UTC) | temp F | wind direction | speed MPH | gust MPH | rain 1hr in | rain 24hr in | rain mn in | humidity % | barometer mb |
| 20260507180054 | 58 | 74 | 2.0 | 3.0 | 0.00 | 0.00 | 0.00 | 40 | 1001.8 |
| 20260507175550 | 60 | 45 | 3.0 | 8.0 | 0.00 | 0.00 | 0.00 | 39 | 1001.7 |
| 20260507175048 | 60 | 351 | 4.0 | 5.0 | 0.00 | 0.00 | 0.00 | 40 | 1001.8 |
| 20260507174545 | 59 | 167 | 2.0 | 5.0 | 0.00 | 0.00 | 0.00 | 41 | 1001.8 |
| 20260507174043 | 59 | 299 | 3.0 | 5.0 | 0.00 | 0.00 | 0.00 | 42 | 1001.9 |
| 20260507173540 | 60 | 66 | 2.0 | 6.0 | 0.00 | 0.00 | 0.00 | 42 | 1002.0 |
| 20260507173037 | 59 | 25 | 1.0 | 2.0 | 0.00 | 0.00 | 0.00 | 45 | 1001.9 |
| 20260507172533 | 59 | 88 | 1.0 | 7.0 | 0.00 | 0.00 | 0.00 | 42 | 1001.9 |
| 20260507172030 | 59 | 15 | 2.0 | 3.0 | 0.00 | 0.00 | 0.00 | 44 | 1002.1 |
| 20260507171525 | 57 | 296 | 5.0 | 6.0 | 0.00 | 0.00 | 0.00 | 45 | 1002.0 |
| 20260507171023 | 56 | 329 | 2.0 | 6.0 | 0.00 | 0.00 | 0.00 | 49 | 1002.1 |
| 20260507170519 | 56 | 53 | 2.0 | 9.0 | 0.00 | 0.00 | 0.00 | 51 | 1002.0 |
| 20260507170016 | 58 | 41 | 0.0 | 5.0 | 0.00 | 0.00 | 0.00 | 50 | 1002.2 |
| 20260507165512 | 57 | 46 | 1.0 | 7.0 | 0.00 | 0.00 | 0.00 | 55 | 1002.2 |
| 20260507165009 | 57 | 22 | 2.0 | 3.0 | 0.00 | 0.00 | 0.00 | 59 | 1002.3 |
| 20260507164505 | 55 | 32 | 2.0 | 6.0 | 0.00 | 0.00 | 0.00 | 62 | 1002.6 |
| 20260507164002 | 55 | 260 | 2.0 | 5.0 | 0.00 | 0.00 | 0.00 | 62 | 1002.6 |
| 20260507163459 | 55 | 351 | 2.0 | 7.0 | 0.00 | 0.00 | 0.00 | 58 | 1002.7 |
| 20260507162956 | 55 | 247 | 4.0 | 6.0 | 0.00 | 0.00 | 0.00 | 57 | 1002.7 |
| 20260507162451 | 54 | 355 | 4.0 | 6.0 | 0.00 | 0.00 | 0.00 | 62 | 1003.0 |
| 20260507161949 | 53 | 341 | 2.0 | 6.0 | 0.00 | 0.00 | 0.00 | 64 | 1003.0 |
| 20260507161445 | 53 | 45 | 1.0 | 6.0 | 0.00 | 0.00 | 0.00 | 66 | 1003.0 |
| 20260507160942 | 53 | 8 | 2.0 | 7.0 | 0.00 | 0.00 | 0.00 | 66 | 1003.0 |
| 20260507160438 | 55 | 12 | 2.0 | 6.0 | 0.00 | 0.00 | 0.00 | 68 | 1002.8 |
| 20260507155933 | 56 | 55 | 3.0 | 6.0 | 0.00 | 0.00 | 0.00 | 63 | 1002.7 |
| 20260507155430 | 56 | 27 | 1.0 | 2.0 | 0.00 | 0.00 | 0.00 | 63 | 1002.8 |
| 20260507154927 | 56 | 251 | 3.0 | 7.0 | 0.00 | 0.00 | 0.00 | 63 | 1002.8 |
| 20260507154423 | 57 | 346 | 2.0 | 3.0 | 0.00 | 0.00 | 0.00 | 61 | 1002.9 |
| 20260507153921 | 58 | 2 | 1.0 | 8.0 | 0.00 | 0.00 | 0.00 | 63 | 1002.7 |
| 20260507153417 | 57 | 285 | 5.0 | 7.0 | 0.00 | 0.00 | 0.00 | 62 | 1002.7 |
| 20260507152914 | 56 | 263 | 1.0 | 5.0 | 0.00 | 0.00 | 0.00 | 66 | 1002.9 |
| 20260507152410 | 56 | 16 | 1.0 | 5.0 | 0.00 | 0.00 | 0.00 | 66 | 1003.0 |
| 20260507151906 | 56 | 36 | 1.0 | 3.0 | 0.00 | 0.00 | 0.00 | 67 | 1003.0 |
| 20260507151403 | 55 | 274 | 2.0 | 8.0 | 0.00 | 0.00 | 0.00 | 65 | 1003.0 |
| 20260507150900 | 56 | 127 | 4.0 | 6.0 | 0.00 | 0.00 | 0.00 | 65 | 1003.0 |
| 20260507150356 | 56 | 128 | 2.0 | 6.0 | 0.00 | 0.00 | 0.00 | 68 | 1002.9 |
| 20260507145852 | 56 | 39 | 0.0 | 3.0 | 0.00 | 0.00 | 0.00 | 67 | 1002.9 |
| 20260507145349 | 56 | 353 | 2.0 | 3.0 | 0.00 | 0.00 | 0.00 | 64 | 1003.0 |
| 20260507144846 | 56 | 25 | 1.0 | 5.0 | 0.00 | 0.00 | 0.00 | 64 | 1002.8 |
| 20260507144343 | 56 | 50 | 1.0 | 3.0 | 0.00 | 0.00 | 0.00 | 66 | 1003.0 |
| 20260507143840 | 56 | 25 | 3.0 | 6.0 | 0.00 | 0.00 | 0.00 | 62 | 1002.7 |
| 20260507143337 | 57 | 16 | 3.0 | 3.0 | 0.00 | 0.00 | 0.00 | 67 | 1002.8 |
| 20260507142833 | 56 | 20 | 1.0 | 2.0 | 0.00 | 0.00 | 0.00 | 66 | 1002.7 |
| 20260507142330 | 55 | 75 | 1.0 | 2.0 | 0.00 | 0.00 | 0.00 | 66 | 1002.9 |
| 20260507141826 | 56 | 67 | 2.0 | 3.0 | 0.00 | 0.00 | 0.00 | 64 | 1002.9 |
| 20260507141323 | 57 | 328 | 3.0 | 3.0 | 0.00 | 0.00 | 0.00 | 64 | 1002.9 |
| 20260507140820 | 57 | 30 | 2.0 | 3.0 | 0.00 | 0.00 | 0.00 | 65 | 1002.8 |
| 20260507140316 | 56 | 24 | 2.0 | 3.0 | 0.00 | 0.00 | 0.00 | 61 | 1002.7 |
| 20260507135815 | 56 | 255 | 4.0 | 6.0 | 0.00 | 0.00 | 0.00 | 60 | 1003.0 |
| 20260507135311 | 57 | 13 | 2.0 | 2.0 | 0.00 | 0.00 | 0.00 | 62 | 1003.0 |
| 20260507134808 | 56 | 22 | 1.0 | 5.0 | 0.00 | 0.00 | 0.00 | 60 | 1002.9 |
| 20260507134304 | 56 | 15 | 4.0 | 5.0 | 0.00 | 0.00 | 0.00 | 64 | 1003.1 |
| 20260507133800 | 57 | 50 | 2.0 | 2.0 | 0.00 | 0.00 | 0.00 | 61 | 1003.1 |
| 20260507133256 | 55 | 24 | 2.0 | 3.0 | 0.00 | 0.00 | 0.00 | 63 | 1003.3 |
| 20260507132755 | 55 | 66 | 2.0 | 2.0 | 0.00 | 0.00 | 0.00 | 63 | 1003.5 |
| 20260507132251 | 56 | 1 | 3.0 | 6.0 | 0.00 | 0.00 | 0.00 | 62 | 1003.3 |
| 20260507131748 | 55 | 25 | 2.0 | 7.0 | 0.00 | 0.00 | 0.00 | 63 | 1003.5 |
| 20260507131245 | 55 | 60 | 1.0 | 5.0 | 0.00 | 0.00 | 0.00 | 63 | 1003.6 |
| 20260507130741 | 55 | 172 | 2.0 | 5.0 | 0.00 | 0.00 | 0.00 | 64 | 1003.4 |
| 20260507130239 | 54 | 55 | 0.0 | 3.0 | 0.00 | 0.00 | 0.00 | 67 | 1003.5 |
| 20260507125738 | 54 | 53 | 1.0 | 3.0 | 0.00 | 0.00 | 0.00 | 64 | 1003.3 |
| 20260507125235 | 54 | 68 | 1.0 | 2.0 | 0.00 | 0.00 | 0.00 | 67 | 1003.2 |
| 20260507124731 | 53 | 71 | 1.0 | 3.0 | 0.00 | 0.00 | 0.00 | 69 | 1003.4 |
| 20260507124228 | 53 | 38 | 0.0 | 2.0 | 0.00 | 0.00 | 0.00 | 70 | 1003.3 |
| 20260507123727 | 53 | 54 | 0.0 | 1.0 | 0.00 | 0.00 | 0.00 | 75 | 1003.5 |
| 20260507123224 | 52 | 27 | 1.0 | 2.0 | 0.00 | 0.00 | 0.00 | 79 | 1003.4 |
| 20260507122719 | 52 | 37 | 0.0 | 2.0 | 0.00 | 0.00 | 0.00 | 81 | 1003.7 |
| 20260507122215 | 52 | 315 | 2.0 | 3.0 | 0.00 | 0.00 | 0.00 | 82 | 1003.6 |
| 20260507121711 | 51 | 333 | 1.0 | 2.0 | 0.00 | 0.00 | 0.00 | 77 | 1003.8 |
| 20260507121207 | 51 | 345 | 1.0 | 2.0 | 0.00 | 0.00 | 0.00 | 77 | 1003.7 |
| 20260507120703 | 50 | 328 | 1.0 | 3.0 | 0.00 | 0.00 | 0.00 | 85 | 1003.9 |
| 20260507120201 | 50 | 29 | 1.0 | 1.0 | 0.00 | 0.00 | 0.00 | 84 | 1003.7 |
| 20260507115656 | 49 | 52 | 0.0 | 2.0 | 0.00 | 0.00 | 0.00 | 83 | 1003.8 |
| 20260507115152 | 49 | 6 | 1.0 | 1.0 | 0.00 | 0.00 | 0.00 | 88 | 1003.9 |
| 20260507114648 | 48 | 298 | 3.0 | 3.0 | 0.00 | 0.00 | 0.00 | 84 | 1003.8 |
| 20260507114146 | 48 | 41 | 0.0 | 1.0 | 0.00 | 0.00 | 0.00 | 92 | 1003.6 |
| 20260507113643 | 47 | 33 | 0.0 | 2.0 | 0.00 | 0.00 | 0.00 | 89 | 1003.6 |
| 20260507113140 | 47 | 18 | 1.0 | 2.0 | 0.00 | 0.00 | 0.00 | 90 | 1003.7 |
| 20260507112638 | 46 | 28 | 0.0 | 2.0 | 0.00 | 0.00 | 0.00 | 97 | 1003.6 |
| 20260507112134 | 45 | 32 | 0.0 | 1.0 | 0.00 | 0.00 | 0.00 | 99 | 1003.4 |
| 20260507111631 | 45 | 32 | 0.0 | 1.0 | 0.00 | 0.00 | 0.00 | 99 | 1003.7 |
| 20260507111128 | 44 | 33 | 0.0 | 1.0 | 0.00 | 0.00 | 0.00 | 99 | 1003.8 |
| 20260507110624 | 44 | 32 | 0.0 | 1.0 | 0.00 | 0.00 | 0.00 | 99 | 1003.7 |
| 20260507110121 | 43 | 32 | 0.0 | 1.0 | 0.00 | 0.00 | 0.00 | 99 | 1003.6 |
| 20260507105618 | 42 | 32 | 0.0 | 1.0 | 0.00 | 0.00 | 0.00 | 99 | 1003.7 |
| 20260507105114 | 42 | 32 | 0.0 | 1.0 | 0.00 | 0.00 | 0.00 | 99 | 1003.5 |
| 20260507104612 | 42 | 32 | 1.0 | 1.0 | 0.00 | 0.00 | 0.00 | 99 | 1003.6 |
| 20260507104108 | 42 | 32 | 1.0 | 1.0 | 0.00 | 0.00 | 0.00 | 99 | 1003.8 |
| 20260507103604 | 42 | 32 | 0.0 | 0.0 | 0.00 | 0.00 | 0.00 | 99 | 1003.9 |
| 20260507103101 | 41 | 32 | 0.0 | 0.0 | 0.00 | 0.00 | 0.00 | 99 | 1003.8 |
| 20260507102557 | 42 | 32 | 0.0 | 1.0 | 0.00 | 0.00 | 0.00 | 99 | 1003.7 |
| 20260507102053 | 42 | 32 | 0.0 | 1.0 | 0.00 | 0.00 | 0.00 | 99 | 1003.7 |
| 20260507101548 | 42 | 32 | 1.0 | 1.0 | 0.00 | 0.00 | 0.00 | 99 | 1003.7 |
| 20260507101045 | 42 | 32 | 0.0 | 0.0 | 0.00 | 0.00 | 0.00 | 99 | 1003.7 |
| 20260507100543 | 42 | 32 | 1.0 | 1.0 | 0.00 | 0.00 | 0.00 | 99 | 1003.6 |
| 20260507100041 | 41 | 32 | 0.0 | 1.0 | 0.00 | 0.00 | 0.00 | 99 | 1003.7 |
| 20260507095538 | 41 | 32 | 0.0 | 0.0 | 0.00 | 0.00 | 0.00 | 99 | 1003.7 |
| 20260507095035 | 42 | 32 | 0.0 | 1.0 | 0.00 | 0.00 | 0.00 | 99 | 1003.7 |
| 20260507094531 | 42 | 32 | 0.0 | 0.0 | 0.00 | 0.00 | 0.00 | 99 | 1003.6 |
| 20260507094028 | 42 | 32 | 0.0 | 1.0 | 0.00 | 0.00 | 0.00 | 99 | 1003.6 |
| 20260507093526 | 43 | 32 | 0.0 | 1.0 | 0.00 | 0.00 | 0.00 | 99 | 1003.5 |
| 20260507093024 | 43 | 32 | 0.0 | 0.0 | 0.00 | 0.00 | 0.00 | 99 | 1003.5 |
| 20260507092520 | 43 | 32 | 0.0 | 0.0 | 0.00 | 0.00 | 0.00 | 99 | 1003.4 |
| 20260507092017 | 43 | 32 | 0.0 | 0.0 | 0.00 | 0.00 | 0.00 | 99 | 1003.4 |
| 20260507091514 | 44 | 32 | 0.0 | 0.0 | 0.00 | 0.00 | 0.00 | 99 | 1003.3 |
| 20260507091010 | 44 | 32 | 0.0 | 1.0 | 0.00 | 0.00 | 0.00 | 99 | 1003.5 |
| 20260507090506 | 44 | 32 | 1.0 | 1.0 | 0.00 | 0.00 | 0.00 | 99 | 1003.3 |
| 20260507090003 | 44 | 33 | 0.0 | 0.0 | 0.00 | 0.00 | 0.00 | 99 | 1003.2 |
| 20260507085500 | 45 | 33 | 0.0 | 1.0 | 0.00 | 0.00 | 0.00 | 99 | 1003.1 |
| 20260507084956 | 45 | 33 | 0.0 | 1.0 | 0.00 | 0.00 | 0.00 | 99 | 1003.5 |
| 20260507084453 | 45 | 32 | 0.0 | 0.0 | 0.00 | 0.00 | 0.00 | 99 | 1003.5 |
| 20260507083950 | 45 | 33 | 0.0 | 0.0 | 0.00 | 0.00 | 0.00 | 99 | 1003.6 |
| 20260507083446 | 45 | 33 | 0.0 | 0.0 | 0.00 | 0.00 | 0.00 | 99 | 1003.5 |
| 20260507082943 | 45 | 33 | 0.0 | 0.0 | 0.00 | 0.00 | 0.00 | 99 | 1003.6 |
| 20260507082439 | 45 | 32 | 0.0 | 1.0 | 0.00 | 0.00 | 0.00 | 99 | 1003.5 |
| 20260507081936 | 45 | 33 | 0.0 | 0.0 | 0.00 | 0.00 | 0.00 | 99 | 1003.3 |
| 20260507081432 | 45 | 33 | 0.0 | 0.0 | 0.00 | 0.00 | 0.00 | 99 | 1003.4 |
| 20260507080929 | 46 | 33 | 0.0 | 1.0 | 0.00 | 0.00 | 0.00 | 99 | 1003.2 |
| 20260507080425 | 45 | 33 | 0.0 | 0.0 | 0.00 | 0.00 | 0.00 | 99 | 1003.2 |
| 20260507075920 | 46 | 33 | 0.0 | 0.0 | 0.00 | 0.00 | 0.00 | 99 | 1003.0 |
| 20260507075417 | 46 | 33 | 0.0 | 0.0 | 0.00 | 0.00 | 0.00 | 99 | 1002.8 |
| 20260507074914 | 46 | 33 | 0.0 | 0.0 | 0.00 | 0.00 | 0.00 | 99 | 1002.6 |
| 20260507074410 | 46 | 33 | 0.0 | 0.0 | 0.00 | 0.00 | 0.00 | 99 | 1002.8 |
| 20260507073908 | 46 | 33 | 0.0 | 0.0 | 0.00 | 0.00 | 0.00 | 99 | 1002.8 |
| 20260507073404 | 46 | 33 | 0.0 | 1.0 | 0.00 | 0.00 | 0.00 | 99 | 1002.9 |
| 20260507072902 | 46 | 35 | 1.0 | 1.0 | 0.00 | 0.00 | 0.00 | 99 | 1002.8 |
| 20260507072359 | 46 | 38 | 1.0 | 2.0 | 0.00 | 0.00 | 0.00 | 99 | 1002.9 |
| 20260507071856 | 46 | 30 | 0.0 | 1.0 | 0.00 | 0.00 | 0.00 | 99 | 1002.9 |
| 20260507071353 | 46 | 23 | 1.0 | 2.0 | 0.00 | 0.00 | 0.00 | 99 | 1002.9 |
| 20260507070849 | 46 | 26 | 0.0 | 2.0 | 0.00 | 0.00 | 0.00 | 99 | 1002.8 |
| 20260507070347 | 46 | 25 | 0.0 | 3.0 | 0.00 | 0.00 | 0.00 | 99 | 1002.8 |
| 20260507065844 | 46 | 32 | 0.0 | 3.0 | 0.00 | 0.00 | 0.00 | 99 | 1002.8 |
| 20260507065340 | 46 | 24 | 1.0 | 2.0 | 0.00 | 0.00 | 0.00 | 99 | 1003.0 |
| 20260507064837 | 46 | 17 | 2.0 | 2.0 | 0.00 | 0.00 | 0.00 | 99 | 1002.7 |
| 20260507064336 | 46 | 28 | 0.0 | 1.0 | 0.00 | 0.00 | 0.00 | 99 | 1002.7 |
| 20260507063833 | 46 | 29 | 1.0 | 2.0 | 0.00 | 0.00 | 0.00 | 99 | 1002.4 |
| 20260507063330 | 46 | 50 | 1.0 | 2.0 | 0.00 | 0.00 | 0.00 | 99 | 1002.4 |
| 20260507062827 | 46 | 37 | 1.0 | 1.0 | 0.00 | 0.00 | 0.00 | 99 | 1002.3 |
| 20260507062324 | 46 | 30 | 1.0 | 2.0 | 0.00 | 0.00 | 0.00 | 99 | 1002.4 |
| 20260507061822 | 46 | 50 | 1.0 | 1.0 | 0.00 | 0.00 | 0.00 | 99 | 1002.1 |
| 20260507061320 | 47 | 41 | 0.0 | 1.0 | 0.00 | 0.00 | 0.00 | 99 | 1002.4 |
| 20260507060818 | 47 | 28 | 0.0 | 0.0 | 0.00 | 0.00 | 0.00 | 99 | 1002.0 |
| 20260507060314 | 47 | 28 | 0.0 | 0.0 | 0.00 | 0.00 | 0.00 | 99 | 1002.1 |
| 20260507055811 | 47 | 28 | 0.0 | 0.0 | 0.00 | 0.00 | 0.00 | 99 | 1001.9 |
| 20260507055306 | 47 | 28 | 0.0 | 0.0 | 0.00 | 0.00 | 0.00 | 99 | 1002.0 |
| 20260507054803 | 48 | 28 | 0.0 | 0.0 | 0.00 | 0.00 | 0.00 | 99 | 1002.1 |
| 20260507054259 | 48 | 28 | 0.0 | 0.0 | 0.00 | 0.00 | 0.00 | 99 | 1001.9 |
| 20260507053756 | 48 | 28 | 0.0 | 0.0 | 0.00 | 0.00 | 0.00 | 99 | 1001.8 |
| 20260507053254 | 48 | 28 | 0.0 | 0.0 | 0.00 | 0.00 | 0.00 | 99 | 1002.1 |
| 20260507052753 | 48 | 32 | 0.0 | 0.0 | 0.00 | 0.00 | 0.00 | 99 | 1002.0 |
| 20260507052249 | 49 | 32 | 0.0 | 0.0 | 0.00 | 0.00 | 0.00 | 99 | 1001.9 |
| 20260507051747 | 49 | 33 | 0.0 | 0.0 | 0.00 | 0.00 | 0.00 | 99 | 1001.6 |
| 20260507051244 | 49 | 33 | 0.0 | 0.0 | 0.00 | 0.00 | 0.00 | 99 | 1001.8 |
| 20260507050740 | 49 | 33 | 0.0 | 0.0 | 0.00 | 0.00 | 0.00 | 99 | 1001.7 |
| 20260507050237 | 49 | 33 | 0.0 | 0.0 | 0.00 | 0.00 | 0.00 | 99 | 1002.0 |
| 20260507045734 | 49 | 33 | 0.0 | 0.0 | 0.00 | 0.00 | 0.00 | 99 | 1002.0 |
| 20260507045230 | 49 | 34 | 0.0 | 1.0 | 0.00 | 0.00 | 0.00 | 99 | 1001.9 |
| 20260507044728 | 49 | 38 | 0.0 | 0.0 | 0.00 | 0.00 | 0.00 | 99 | 1001.8 |
| 20260507044224 | 49 | 50 | 1.0 | 1.0 | 0.00 | 0.00 | 0.00 | 99 | 1001.5 |
| 20260507043720 | 49 | 30 | 0.0 | 1.0 | 0.00 | 0.00 | 0.00 | 99 | 1001.6 |
| 20260507043217 | 49 | 29 | 0.0 | 1.0 | 0.00 | 0.00 | 0.00 | 99 | 1002.0 |
| 20260507042714 | 49 | 32 | 0.0 | 2.0 | 0.00 | 0.00 | 0.00 | 99 | 1002.0 |
| 20260507042208 | 50 | 33 | 1.0 | 1.0 | 0.00 | 0.00 | 0.00 | 99 | 1001.7 |
| 20260507041706 | 50 | 28 | 1.0 | 2.0 | 0.00 | 0.00 | 0.00 | 99 | 1002.1 |
| 20260507041202 | 50 | 357 | 2.0 | 2.0 | 0.00 | 0.00 | 0.00 | 99 | 1001.9 |
| 20260507040700 | 50 | 29 | 0.0 | 2.0 | 0.00 | 0.00 | 0.00 | 99 | 1002.0 |
| 20260507040155 | 50 | 33 | 0.0 | 0.0 | 0.00 | 0.00 | 0.00 | 99 | 1001.9 |
| 20260507035652 | 50 | 52 | 0.0 | 2.0 | 0.07 | 0.43 | 0.43 | 99 | 1002.1 |
| 20260507035148 | 51 | 49 | 1.0 | 1.0 | 0.07 | 0.43 | 0.43 | 99 | 1002.0 |
| 20260507034645 | 50 | 39 | 1.0 | 1.0 | 0.00 | 0.42 | 0.42 | 99 | 1001.9 |
| 20260507034142 | 50 | 51 | 1.0 | 2.0 | 0.00 | 0.42 | 0.42 | 99 | 1001.8 |
| 20260507033641 | 51 | 42 | 1.0 | 1.0 | 0.00 | 0.42 | 0.42 | 99 | 1001.7 |
| 20260507033137 | 51 | 44 | 1.0 | 1.0 | 0.00 | 0.42 | 0.42 | 99 | 1002.0 |
| 20260507032635 | 51 | 46 | 0.0 | 0.0 | 0.00 | 0.42 | 0.42 | 99 | 1001.9 |
| 20260507032131 | 52 | 39 | 1.0 | 1.0 | 0.00 | 0.42 | 0.42 | 99 | 1001.5 |
| 20260507031628 | 52 | 26 | 0.0 | 1.0 | 0.05 | 0.42 | 0.42 | 99 | 1001.5 |
| 20260507031124 | 52 | 10 | 1.0 | 2.0 | 0.00 | 0.41 | 0.41 | 99 | 1001.5 |
| 20260507030621 | 53 | 27 | 0.0 | 2.0 | 0.00 | 0.41 | 0.41 | 99 | 1001.4 |
| 20260507030119 | 53 | 29 | 1.0 | 2.0 | 0.00 | 0.41 | 0.41 | 99 | 1001.2 |
| 20260507025616 | 53 | 47 | 1.0 | 2.0 | 0.00 | 0.41 | 0.41 | 99 | 1001.1 |
| 20260507025113 | 53 | 25 | 0.0 | 1.0 | 0.00 | 0.41 | 0.41 | 99 | 1001.1 |
| 20260507024611 | 54 | 33 | 1.0 | 2.0 | 0.00 | 0.41 | 0.41 | 99 | 1001.2 |
| 20260507024108 | 54 | 54 | 2.0 | 2.0 | 0.00 | 0.41 | 0.41 | 99 | 1001.1 |
| 20260507023603 | 54 | 13 | 1.0 | 3.0 | 0.00 | 0.41 | 0.41 | 99 | 1001.2 |
| 20260507023101 | 55 | 40 | 0.0 | 1.0 | 0.00 | 0.41 | 0.41 | 99 | 1001.0 |
| 20260507022558 | 55 | 46 | 0.0 | 1.0 | 0.00 | 0.41 | 0.41 | 99 | 1001.0 |
| 20260507022053 | 55 | 35 | 0.0 | 0.0 | 0.00 | 0.41 | 0.41 | 99 | 1000.9 |
| 20260507021549 | 55 | 35 | 0.0 | 1.0 | 0.07 | 0.41 | 0.41 | 99 | 1000.9 |
| 20260507021045 | 56 | 41 | 1.0 | 1.0 | 0.07 | 0.41 | 0.41 | 99 | 1000.8 |
| 20260507020544 | 56 | 35 | 0.0 | 0.0 | 0.00 | 0.40 | 0.40 | 99 | 1000.7 |
| 20260507020040 | 56 | 35 | 0.0 | 1.0 | 0.00 | 0.40 | 0.40 | 99 | 1000.6 |
| 20260507015538 | 56 | 35 | 0.0 | 0.0 | 0.00 | 0.40 | 0.40 | 99 | 1000.8 |
| 20260507015035 | 56 | 36 | 0.0 | 1.0 | 0.00 | 0.40 | 0.40 | 99 | 1000.7 |
| 20260507014532 | 57 | 35 | 0.0 | 1.0 | 0.00 | 0.40 | 0.40 | 99 | 1000.9 |
| 20260507014027 | 57 | 35 | 0.0 | 0.0 | 0.00 | 0.40 | 0.40 | 99 | 1000.8 |
| 20260507013524 | 57 | 20 | 1.0 | 2.0 | 0.00 | 0.40 | 0.40 | 99 | 1001.0 |
| 20260507013022 | 58 | 12 | 1.0 | 2.0 | 0.00 | 0.40 | 0.40 | 99 | 1000.6 |
| 20260507012519 | 58 | 35 | 1.0 | 1.0 | 0.05 | 0.40 | 0.40 | 99 | 1000.7 |
| 20260507012015 | 58 | 33 | 0.0 | 0.0 | 0.05 | 0.40 | 0.40 | 99 | 1000.8 |
| 20260507011513 | 58 | 33 | 0.0 | 1.0 | 0.00 | 0.39 | 0.39 | 99 | 1000.8 |
| 20260507011008 | 58 | 34 | 0.0 | 0.0 | 0.00 | 0.39 | 0.39 | 99 | 1000.6 |
| 20260507010503 | 58 | 34 | 0.0 | 1.0 | 0.00 | 0.39 | 0.39 | 99 | 1000.4 |
| 20260507010000 | 58 | 34 | 0.0 | 0.0 | 0.00 | 0.39 | 0.39 | 99 | 1000.7 |
| 20260507005457 | 58 | 29 | 0.0 | 1.0 | 0.00 | 0.39 | 0.39 | 99 | 1000.3 |
| 20260507004953 | 59 | 42 | 0.0 | 1.0 | 0.00 | 0.39 | 0.39 | 99 | 1000.6 |
| 20260507004450 | 59 | 42 | 0.0 | 1.0 | 0.00 | 0.39 | 0.39 | 99 | 1000.6 |
| 20260507003948 | 59 | 42 | 1.0 | 1.0 | 0.00 | 0.39 | 0.39 | 99 | 1000.2 |
| 20260507003443 | 59 | 42 | 0.0 | 1.0 | 0.00 | 0.39 | 0.39 | 99 | 1000.4 |
| 20260507002938 | 59 | 31 | 0.0 | 1.0 | 0.00 | 0.39 | 0.39 | 99 | 1000.4 |
| 20260507002435 | 59 | 31 | 0.0 | 0.0 | 0.00 | 0.39 | 0.39 | 99 | 1000.3 |
| 20260507001932 | 59 | 31 | 0.0 | 0.0 | 0.00 | 0.39 | 0.39 | 99 | 1000.4 |
| 20260507001428 | 59 | 26 | 1.0 | 1.0 | 0.00 | 0.39 | 0.39 | 99 | 1000.3 |
| 20260507000926 | 59 | 35 | 0.0 | 1.0 | 0.00 | 0.39 | 0.39 | 99 | 1000.3 |
| 20260507000421 | 59 | 345 | 1.0 | 2.0 | 0.00 | 0.39 | 0.39 | 99 | 1000.3 |
| 20260506235917 | 59 | 24 | 0.0 | 1.0 | 0.00 | 0.39 | 0.39 | 99 | 1000.0 |
| 20260506235415 | 59 | 12 | 3.0 | 5.0 | 0.00 | 0.39 | 0.39 | 99 | 1000.0 |
| 20260506234910 | 59 | 0 | 2.0 | 2.0 | 0.00 | 0.39 | 0.39 | 99 | 1000.1 |
| 20260506234408 | 59 | 14 | 2.0 | 2.0 | 0.00 | 0.39 | 0.39 | 99 | 999.9 |
| 20260506233906 | 59 | 29 | 1.0 | 2.0 | 0.00 | 0.39 | 0.39 | 99 | 999.8 |
| 20260506233401 | 59 | 236 | 3.0 | 5.0 | 0.00 | 0.39 | 0.39 | 99 | 999.7 |
| 20260506232858 | 59 | 342 | 2.0 | 6.0 | 0.00 | 0.39 | 0.39 | 99 | 999.6 |
| 20260506232354 | 59 | 9 | 2.0 | 6.0 | 0.00 | 0.39 | 0.39 | 99 | 999.6 |
| 20260506231850 | 59 | 14 | 1.0 | 3.0 | 0.00 | 0.39 | 0.39 | 99 | 999.8 |
| 20260506231348 | 59 | 54 | 1.0 | 2.0 | 0.00 | 0.39 | 0.39 | 99 | 999.8 |
| 20260506230846 | 59 | 209 | 2.0 | 5.0 | 0.00 | 0.39 | 0.39 | 99 | 999.6 |
| 20260506230342 | 59 | 16 | 1.0 | 3.0 | 0.00 | 0.39 | 0.39 | 99 | 999.9 |
| 20260506225838 | 59 | 34 | 1.0 | 1.0 | 0.00 | 0.39 | 0.39 | 99 | 999.6 |
| 20260506225336 | 59 | 60 | 1.0 | 2.0 | 0.00 | 0.39 | 0.39 | 99 | 999.9 |
| 20260506224833 | 59 | 17 | 1.0 | 3.0 | 0.07 | 0.39 | 0.39 | 99 | 999.6 |
| 20260506224330 | 59 | 21 | 0.0 | 6.0 | 0.00 | 0.38 | 0.38 | 99 | 999.8 |
| 20260506223826 | 59 | 8 | 2.0 | 3.0 | 0.00 | 0.38 | 0.38 | 99 | 999.9 |
| 20260506223321 | 59 | 57 | 1.0 | 2.0 | 0.05 | 0.38 | 0.38 | 99 | 1000.0 |
| 20260506222819 | 59 | 35 | 0.0 | 2.0 | 0.12 | 0.38 | 0.38 | 99 | 999.9 |
| 20260506222313 | 60 | 325 | 2.0 | 3.0 | 0.07 | 0.37 | 0.37 | 99 | 1000.2 |
| 20260506221807 | 60 | 38 | 0.0 | 1.0 | 0.00 | 0.36 | 0.36 | 99 | 1000.2 |
| 20260506221304 | 60 | 31 | 0.0 | 1.0 | 0.00 | 0.36 | 0.36 | 99 | 1000.1 |
| 20260506220801 | 60 | 39 | 0.0 | 1.0 | 0.05 | 0.36 | 0.36 | 99 | 1000.4 |
| 20260506220256 | 60 | 38 | 0.0 | 0.0 | 0.05 | 0.36 | 0.36 | 99 | 1000.4 |
| 20260506215753 | 60 | 38 | 0.0 | 0.0 | 0.07 | 0.35 | 0.35 | 99 | 1000.7 |
| 20260506215249 | 60 | 38 | 0.0 | 0.0 | 0.19 | 0.35 | 0.35 | 99 | 1000.7 |
| 20260506214745 | 60 | 38 | 0.0 | 0.0 | 0.19 | 0.34 | 0.34 | 99 | 1000.8 |
| 20260506214242 | 60 | 38 | 0.0 | 1.0 | 0.12 | 0.32 | 0.32 | 99 | 1000.7 |
| 20260506213741 | 60 | 50 | 0.0 | 0.0 | 0.12 | 0.31 | 0.31 | 99 | 1000.8 |
| 20260506213237 | 60 | 50 | 0.0 | 0.0 | 0.19 | 0.30 | 0.30 | 99 | 1001.0 |
| 20260506212735 | 60 | 50 | 0.0 | 1.0 | 0.28 | 0.29 | 0.29 | 99 | 1001.0 |
| 20260506212230 | 60 | 34 | 1.0 | 1.0 | 0.24 | 0.27 | 0.27 | 99 | 1000.9 |
| 20260506211725 | 60 | 11 | 2.0 | 3.0 | 0.07 | 0.24 | 0.24 | 99 | 1001.1 |
| 20260506211222 | 60 | 39 | 0.0 | 1.0 | 0.00 | 0.23 | 0.23 | 99 | 1001.2 |
| 20260506210719 | 60 | 306 | 1.0 | 3.0 | 0.00 | 0.23 | 0.23 | 99 | 1001.1 |
| 20260506210216 | 60 | 39 | 0.0 | 2.0 | 0.00 | 0.23 | 0.23 | 99 | 1001.2 |
| 20260506205713 | 60 | 35 | 0.0 | 1.0 | 0.00 | 0.23 | 0.23 | 99 | 1001.2 |
| 20260506205208 | 60 | 42 | 0.0 | 1.0 | 0.00 | 0.23 | 0.23 | 99 | 1001.2 |
| 20260506204706 | 60 | 42 | 1.0 | 2.0 | 0.05 | 0.23 | 0.23 | 99 | 1001.4 |
| 20260506204203 | 60 | 44 | 1.0 | 5.0 | 0.05 | 0.23 | 0.23 | 99 | 1001.2 |
| 20260506203701 | 60 | 32 | 1.0 | 2.0 | 0.00 | 0.22 | 0.22 | 99 | 1001.4 |
| 20260506203158 | 61 | 17 | 1.0 | 2.0 | 0.00 | 0.22 | 0.22 | 99 | 1001.5 |
| 20260506202656 | 60 | 45 | 0.0 | 2.0 | 0.00 | 0.22 | 0.22 | 99 | 1001.3 |
| 20260506202151 | 61 | 348 | 1.0 | 1.0 | 0.07 | 0.22 | 0.22 | 99 | 1001.3 |
| 20260506201649 | 61 | 36 | 0.0 | 2.0 | 0.07 | 0.22 | 0.22 | 99 | 1001.3 |
| 20260506201145 | 61 | 16 | 2.0 | 3.0 | 0.07 | 0.21 | 0.21 | 99 | 1001.4 |
| 20260506200642 | 61 | 27 | 2.0 | 3.0 | 0.05 | 0.20 | 0.20 | 99 | 1001.5 |
| 20260506200138 | 61 | 35 | 1.0 | 1.0 | 0.12 | 0.20 | 0.20 | 99 | 1001.5 |
| 20260506195635 | 61 | 26 | 1.0 | 2.0 | 0.07 | 0.19 | 0.19 | 99 | 1001.3 |
| 20260506195131 | 61 | 38 | 1.0 | 1.0 | 0.00 | 0.18 | 0.18 | 99 | 1001.5 |
| 20260506194629 | 61 | 27 | 1.0 | 1.0 | 0.05 | 0.18 | 0.18 | 99 | 1001.6 |
| 20260506194125 | 61 | 42 | 0.0 | 0.0 | 0.05 | 0.18 | 0.18 | 99 | 1001.5 |
| 20260506193623 | 61 | 43 | 0.0 | 1.0 | 0.07 | 0.17 | 0.17 | 99 | 1001.6 |
| 20260506193120 | 61 | 26 | 0.0 | 2.0 | 0.07 | 0.17 | 0.17 | 99 | 1001.7 |
| 20260506192617 | 61 | 27 | 1.0 | 2.0 | 0.00 | 0.16 | 0.16 | 99 | 1001.7 |
| 20260506192112 | 61 | 22 | 1.0 | 2.0 | 0.05 | 0.16 | 0.16 | 99 | 1001.8 |
| 20260506191609 | 61 | 28 | 0.0 | 1.0 | 0.12 | 0.16 | 0.16 | 99 | 1002.0 |
| 20260506191105 | 60 | 25 | 1.0 | 1.0 | 0.12 | 0.15 | 0.15 | 99 | 1002.0 |
| 20260506190603 | 60 | 56 | 0.0 | 1.0 | 0.05 | 0.14 | 0.14 | 99 | 1002.0 |
| 20260506190100 | 60 | 56 | 0.0 | 1.0 | 0.07 | 0.13 | 0.13 | 99 | 1001.9 |
| 20260506185557 | 60 | 56 | 0.0 | 1.0 | 0.07 | 0.13 | 0.13 | 99 | 1002.0 |
| 20260506185053 | 60 | 65 | 0.0 | 1.0 | 0.05 | 0.12 | 0.12 | 99 | 1001.9 |
| 20260506184551 | 60 | 57 | 0.0 | 0.0 | 0.05 | 0.12 | 0.12 | 99 | 1001.9 |
| 20260506184048 | 60 | 57 | 0.0 | 0.0 | 0.07 | 0.11 | 0.11 | 99 | 1002.0 |
| 20260506183544 | 60 | 87 | 0.0 | 0.0 | 0.07 | 0.11 | 0.11 | 99 | 1002.2 |
| 20260506183040 | 60 | 90 | 0.0 | 0.0 | 0.05 | 0.10 | 0.10 | 99 | 1002.6 |
| 20260506182538 | 60 | 87 | 0.0 | 0.0 | 0.12 | 0.10 | 0.10 | 99 | 1002.4 |
| 20260506182035 | 60 | 57 | 1.0 | 1.0 | 0.14 | 0.09 | 0.09 | 99 | 1002.5 |
| 20260506181533 | 60 | 52 | 1.0 | 1.0 | 0.07 | 0.08 | 0.08 | 99 | 1002.7 |
| 20260506181029 | 60 | 72 | 0.0 | 1.0 | 0.05 | 0.07 | 0.07 | 99 | 1002.9 |
| 20260506180526 | 60 | 17 | 1.0 | 1.0 | 0.12 | 0.07 | 0.07 | 99 | 1002.9 |